Find Starlink 4078

NORAD ID: 52689 Int'l Des: 2022-053 Owner: SPXS Country: US Constellation: starlink operational
LEOCIRCULAR

現在のビュー

3D地球を読み込み中...

About Starlink 4078

Starlink 4078 (NORAD 52689) is a starlink constellation satellite (v1.5) launched May 18, 2022 by SPXS of US. It operates in LEO, CIRCULAR orbit with a mass of 297.00 kg.

Starlink 4078について

説明を読み込み中...

次回通過

Passes for default location (London). Set your location on the main map for personalized predictions.

高度履歴

Loading altitude history...

軌道要素

1 52689U 22053AK 26170.65088266 .00168489 00000-0 11397-2 0 9998
2 52689 53.2063 306.8281 0003641 310.9025 49.1680 15.74024917227956
Epoch: Jun 19, 2026 • Age: 17 hours

現在のステータス

高度 350.0 km
速度 7.70 km/s
衛星直下点 37.19°N, 59.72°W
打ち上げ日 May 18, 2022
運用期間 4 years
タイプ internet

技術仕様

分類 Payload
質量 297.00 kg
乾燥質量 275.00 kg
総質量 297.00 kg
長さ 0.20 m
直径 2.80 m
スパン 9.00 m
形状 Box + pan
製造者 SPXS
バスタイプ Starlink
フェーズステータス In Orbit
所有者/国 SPXS/US

Most Searched